Location: Newark
(52.9447°N, 5.7817°E)
Time: 11:58:30
(UTC+00:00)

N. Korean satellite - Visible Passes

Search period start: 20 September 2020 00:00
Search period end: 30 September 2020 00:00
Orbit: 455 x 503 km, 97.2° (Epoch: 19 September)

Date Brightness Start Highest point End Pass type
(mag) Time Alt. Az. Time Alt. Az. Time Alt. Az.
20 Sep 9.7 04:22:33 10° NE 04:25:17 19° E 04:27:58 10° SE visible
21 Sep 10.3 03:58:02 10° ENE 03:59:00 11° E 03:59:56 10° E visible
23 Sep 9.1 04:37:33 10° NE 04:40:44 27° E 04:43:51 10° SSE visible
24 Sep 9.9 04:12:16 10° NE 04:14:29 15° E 04:16:41 10° SE visible
26 Sep 8.4 04:52:39 10° NNE 04:56:07 38° E 04:59:31 10° SSE visible
27 Sep 9.6 04:27:05 10° NE 04:29:56 21° E 04:32:44 10° SE visible
28 Sep 10.1 04:02:14 10° ENE 04:03:38 12° E 04:05:02 10° ESE visible
